Weather History for Whiting Fld NAS, FL

Change the Weather History Date:

Tuesday, January 14, 2014

  Actual Average Record
Temperature  
Mean Temperature 54 °F -  
Max Temperature 64 °F 59 °F 78 °F (2013)
Min Temperature 43 °F 40 °F 25 °F (2011)
Degree Days  
Heating Degree Days 12    
Growing Degree Days 4 (Base 50)    
Moisture  
Dew Point 44 °F    
Average Humidity 70    
Maximum Humidity 100    
Minimum Humidity 27    
Precipitation  
Precipitation 0.00 in - - ()
Sea Level Pressure  
Sea Level Pressure 29.96 in    
Wind  
Wind Speed 9 mph (WNW)    
Max Wind Speed 20 mph    
Max Gust Speed 32 mph    
Visibility 9 miles    
Events Rain    
Averages and records for this station are not official NWS values.
T = Trace of Precipitation, MM = Missing Value Source: NWS Daily Summary

Daily Weather History Graph

Daily Weather History Graph

Search for Another Location

Airport:

Trip Planner

Search our weather history database for the weather conditions in past years. The results will help you decide how hot, cold, wet, or windy it might be!

Date:

Astronomy

Jan. 14, 2014 Rise Set
Actual Time 6:46 AM CST 5:08 PM CST
Civil Twilight 6:20 AM CST 5:34 PM CST
Nautical Twilight 5:50 AM CST 6:03 PM CST
Astronomical Twilight 5:21 AM CST 6:33 PM CST
Moon 4:11 PM CST (1/14) 5:22 AM CST (1/14)
Length of Visible Light 11h 14m
Length of Day
10h 21m
Waxing Gibbous, 98% of the Moon is Illuminated
Jan 14
Waxing Gibbous
Jan 15
Full
Jan 23
Last Quarter
Jan 30
New
Feb 6
First Quarter

Hourly Weather History & Observations

Time (CST) Temp. Windchill Dew Point Humidity Pressure Visibility Wind Dir Wind Speed Gust Speed Precip Events Conditions
12:05 AM 60.1 °F - 60.1 °F 100% 29.87 in 1.0 mi WNW 3.5 mph - 0.00 in Rain Light Rain
12:47 AM 60.1 °F - 59.0 °F 96% 29.86 in 3.0 mi West 9.2 mph - 0.00 in   Overcast
12:56 AM 60.1 °F - 59.0 °F 96% 29.83 in 10.0 mi West 10.4 mph - 0.00 in   Overcast
1:07 AM 60.1 °F - 59.0 °F 96% 29.87 in 10.0 mi West 8.1 mph - N/A   Overcast
1:40 AM 60.1 °F - 59.0 °F 96% 29.88 in 8.0 mi WNW 9.2 mph - N/A   Overcast
1:56 AM 60.1 °F - 57.9 °F 93% 29.84 in 8.0 mi WNW 10.4 mph - N/A   Mostly Cloudy
2:04 AM 59.0 °F - 57.9 °F 96% 29.88 in 8.0 mi WNW 10.4 mph - N/A   Mostly Cloudy
2:19 AM 60.1 °F - 57.9 °F 93% 29.88 in 8.0 mi WNW 13.8 mph - N/A   Mostly Cloudy
2:56 AM 59.0 °F - 55.0 °F 87% 29.87 in 9.0 mi NW 19.6 mph 32.2 mph N/A   Mostly Cloudy
3:12 AM 55.9 °F - 48.9 °F 77% 29.91 in 10.0 mi NNW 16.1 mph 27.6 mph N/A   Partly Cloudy
3:56 AM 54.0 °F - 46.9 °F 77% 29.90 in 10.0 mi NW 12.7 mph - N/A   Clear
4:56 AM 53.1 °F - 46.9 °F 80% 29.93 in 10.0 mi NW 10.4 mph - N/A   Clear
5:56 AM 51.1 °F - 45.0 °F 80% 29.95 in 10.0 mi NW 8.1 mph - N/A   Scattered Clouds
6:56 AM 48.9 °F - 44.1 °F 83% 29.97 in 10.0 mi NW 6.9 mph - N/A   Partly Cloudy
7:56 AM 52.0 °F - 45.0 °F 77% 30.00 in 10.0 mi NW 9.2 mph - N/A   Partly Cloudy
8:56 AM 54.0 °F - 44.1 °F 69% 30.02 in 10.0 mi NW 9.2 mph - N/A   Clear
9:56 AM 57.9 °F - 43.0 °F 58% 30.04 in 10.0 mi Variable 5.8 mph - N/A   Clear
10:56 AM 60.1 °F - 37.9 °F 44% 30.03 in 10.0 mi NNW 11.5 mph - N/A   Clear
11:56 AM 62.1 °F - 33.1 °F 34% 29.99 in 10.0 mi NW 11.5 mph - N/A   Clear
12:56 PM 64.0 °F - 30.0 °F 28% 29.97 in 10.0 mi NNW 8.1 mph - N/A   Clear
1:56 PM 64.0 °F - 28.9 °F 27% 29.97 in 10.0 mi NW 5.8 mph - N/A   Clear
2:56 PM 64.9 °F - 30.0 °F 27% 29.99 in 10.0 mi WNW 9.2 mph - N/A   Clear
3:56 PM 63.0 °F - 28.9 °F 28% 29.99 in 10.0 mi WNW 6.9 mph - N/A   Clear
4:56 PM 57.0 °F - 34.0 °F 42% 30.01 in 10.0 mi WNW 6.9 mph - N/A   Clear
5:56 PM 51.1 °F - 36.0 °F 56% 30.02 in 10.0 mi WNW 4.6 mph - N/A   Clear
6:56 PM 46.0 °F 43.1 °F 37.0 °F 71% 30.04 in 10.0 mi NW 5.8 mph - N/A   Clear
7:56 PM 46.9 °F - 34.0 °F 61% 30.04 in 10.0 mi WNW 5.8 mph - N/A   Clear
8:56 PM 45.0 °F 40.6 °F 35.1 °F 68% 30.05 in 10.0 mi West 8.1 mph - N/A   Clear
9:56 PM 45.0 °F 41.2 °F 36.0 °F 71% 30.05 in 10.0 mi West 6.9 mph - N/A   Clear
10:56 PM 43.0 °F 38.8 °F 36.0 °F 76% 30.04 in 10.0 mi West 6.9 mph - N/A   Clear
11:56 PM 43.0 °F 38.8 °F 36.0 °F 76% 30.02 in 10.0 mi West 6.9 mph - N/A   Clear